| time (UTC) | temp C | wind direction | speed KPH | gust KPH | rain 1hr cm | rain 24hr cm | rain mn cm | humidity % | barometer mb |
| 20260505124920 | 20 | 87 | 3.2 | 3.2 | 0.00 | 0.00 | 0.00 | 79 | 1002.5 |
| 20260505124417 | 20 | 41 | 1.6 | 3.2 | 0.00 | 0.00 | 0.00 | 79 | 1002.7 |
| 20260505123913 | 19 | 53 | 1.6 | 1.6 | 0.00 | 0.00 | 0.00 | 79 | 1002.6 |
| 20260505123410 | 19 | 77 | 3.2 | 4.8 | 0.00 | 0.00 | 0.00 | 79 | 1002.5 |
| 20260505122905 | 19 | 51 | 1.6 | 1.6 | 0.00 | 0.00 | 0.00 | 79 | 1002.5 |
| 20260505122403 | 19 | 61 | 3.2 | 3.2 | 0.00 | 0.00 | 0.00 | 79 | 1002.5 |
| 20260505121900 | 19 | 36 | 0.0 | 1.6 | 0.00 | 0.00 | 0.00 | 80 | 1002.4 |
| 20260505121357 | 19 | 41 | 3.2 | 3.2 | 0.00 | 0.00 | 0.00 | 79 | 1002.0 |
| 20260505120853 | 19 | 40 | 3.2 | 3.2 | 0.00 | 0.00 | 0.00 | 79 | 1002.1 |
| 20260505120349 | 19 | 341 | 3.2 | 4.8 | 0.00 | 0.00 | 0.00 | 79 | 1002.2 |
| 20260505115848 | 19 | 57 | 1.6 | 1.6 | 0.00 | 0.00 | 0.00 | 79 | 1002.2 |
| 20260505115345 | 19 | 39 | 3.2 | 4.8 | 0.00 | 0.00 | 0.00 | 79 | 1002.3 |
| 20260505114843 | 19 | 46 | 3.2 | 3.2 | 0.00 | 0.00 | 0.00 | 80 | 1002.2 |
| 20260505114339 | 19 | 41 | 1.6 | 1.6 | 0.00 | 0.00 | 0.00 | 80 | 1002.1 |
| 20260505113835 | 19 | 42 | 3.2 | 4.8 | 0.00 | 0.00 | 0.00 | 80 | 1002.3 |
| 20260505113332 | 19 | 41 | 3.2 | 3.2 | 0.00 | 0.00 | 0.00 | 80 | 1002.1 |
| 20260505112828 | 19 | 36 | 3.2 | 3.2 | 0.00 | 0.00 | 0.00 | 80 | 1002.1 |
| 20260505112326 | 19 | 41 | 3.2 | 4.8 | 0.00 | 0.00 | 0.00 | 80 | 1002.0 |
| 20260505111821 | 19 | 41 | 3.2 | 3.2 | 0.00 | 0.00 | 0.00 | 80 | 1002.1 |
| 20260505111317 | 19 | 27 | 3.2 | 4.8 | 0.00 | 0.00 | 0.00 | 79 | 1001.9 |
| 20260505110813 | 19 | 40 | 3.2 | 3.2 | 0.00 | 0.00 | 0.00 | 79 | 1001.8 |
| 20260505110311 | 19 | 37 | 0.0 | 1.6 | 0.00 | 0.00 | 0.00 | 79 | 1001.8 |
| 20260505101745 | 19 | 43 | 3.2 | 3.2 | 0.00 | 0.00 | 0.00 | 79 | 1001.1 |
| 20260505101240 | 19 | 47 | 4.8 | 4.8 | 0.00 | 0.00 | 0.00 | 79 | 1001.0 |
| 20260505100737 | 19 | 31 | 3.2 | 3.2 | 0.00 | 0.00 | 0.00 | 78 | 1000.9 |
| 20260505100234 | 19 | 49 | 1.6 | 3.2 | 0.00 | 0.00 | 0.00 | 79 | 1001.0 |
| 20260505095729 | 19 | 43 | 1.6 | 3.2 | 0.00 | 0.00 | 0.00 | 78 | 1000.8 |
| 20260505095228 | 19 | 55 | 1.6 | 3.2 | 0.00 | 0.00 | 0.00 | 78 | 1000.7 |
| 20260505094723 | 20 | 60 | 1.6 | 1.6 | 0.00 | 0.00 | 0.00 | 78 | 1000.8 |
| 20260505094219 | 20 | 52 | 1.6 | 1.6 | 0.00 | 0.00 | 0.00 | 77 | 1000.7 |
| 20260505093716 | 20 | 49 | 3.2 | 6.4 | 0.00 | 0.00 | 0.00 | 77 | 1000.9 |
| 20260505093214 | 20 | 30 | 3.2 | 3.2 | 0.00 | 0.00 | 0.00 | 76 | 1000.6 |
| 20260505092710 | 20 | 41 | 1.6 | 3.2 | 0.00 | 0.00 | 0.00 | 76 | 1000.9 |
| 20260505092209 | 20 | 48 | 1.6 | 1.6 | 0.00 | 0.00 | 0.00 | 76 | 1000.7 |
| 20260505091705 | 20 | 68 | 1.6 | 3.2 | 0.00 | 0.00 | 0.00 | 76 | 1000.8 |
| 20260505091203 | 20 | 50 | 1.6 | 1.6 | 0.00 | 0.00 | 0.00 | 76 | 1000.8 |
| 20260505090701 | 20 | 57 | 0.0 | 0.0 | 0.00 | 0.00 | 0.00 | 76 | 1001.0 |
| 20260505090159 | 20 | 58 | 0.0 | 0.0 | 0.00 | 0.00 | 0.00 | 75 | 1001.0 |
| 20260505085656 | 20 | 58 | 0.0 | 1.6 | 0.00 | 0.00 | 0.00 | 75 | 1000.9 |
| 20260505085154 | 20 | 57 | 0.0 | 0.0 | 0.00 | 0.00 | 0.00 | 75 | 1001.0 |
| 20260505084651 | 20 | 46 | 1.6 | 3.2 | 0.00 | 0.00 | 0.00 | 75 | 1001.1 |
| 20260505084150 | 20 | 57 | 0.0 | 0.0 | 0.00 | 0.00 | 0.00 | 75 | 1001.0 |
| 20260505083647 | 20 | 56 | 0.0 | 1.6 | 0.00 | 0.00 | 0.00 | 74 | 1000.9 |
| 20260505083143 | 20 | 42 | 1.6 | 3.2 | 0.00 | 0.00 | 0.00 | 74 | 1001.2 |
| 20260505082639 | 20 | 54 | 1.6 | 1.6 | 0.00 | 0.00 | 0.00 | 74 | 1001.0 |
| 20260505082136 | 20 | 55 | 3.2 | 4.8 | 0.00 | 0.00 | 0.00 | 74 | 1001.0 |
| 20260505081632 | 20 | 60 | 0.0 | 1.6 | 0.00 | 0.00 | 0.00 | 74 | 1001.2 |
| 20260505081130 | 20 | 49 | 0.0 | 0.0 | 0.00 | 0.00 | 0.00 | 74 | 1001.2 |
| 20260505080626 | 20 | 46 | 1.6 | 1.6 | 0.00 | 0.00 | 0.00 | 74 | 1001.1 |
| 20260505080123 | 20 | 58 | 1.6 | 1.6 | 0.00 | 0.00 | 0.00 | 74 | 1001.2 |
| 20260505075619 | 20 | 45 | 0.0 | 1.6 | 0.00 | 0.00 | 0.00 | 73 | 1001.2 |
| 20260505075116 | 20 | 45 | 1.6 | 1.6 | 0.00 | 0.00 | 0.00 | 74 | 1001.3 |
| 20260505074613 | 20 | 44 | 1.6 | 3.2 | 0.00 | 0.00 | 0.00 | 73 | 1001.5 |
| 20260505074110 | 20 | 48 | 0.0 | 1.6 | 0.00 | 0.00 | 0.00 | 73 | 1001.5 |
| 20260505073607 | 20 | 52 | 0.0 | 0.0 | 0.00 | 0.00 | 0.00 | 74 | 1001.5 |
| 20260505073106 | 20 | 50 | 3.2 | 3.2 | 0.00 | 0.00 | 0.00 | 73 | 1001.6 |
| 20260505072601 | 20 | 44 | 1.6 | 1.6 | 0.00 | 0.00 | 0.00 | 73 | 1001.8 |
| 20260505072058 | 20 | 34 | 3.2 | 3.2 | 0.00 | 0.00 | 0.00 | 73 | 1001.8 |
| 20260505071553 | 20 | 42 | 1.6 | 3.2 | 0.00 | 0.00 | 0.00 | 74 | 1001.9 |
| 20260505071051 | 20 | 41 | 3.2 | 4.8 | 0.00 | 0.00 | 0.00 | 74 | 1002.0 |
| 20260505070548 | 20 | 43 | 1.6 | 1.6 | 0.00 | 0.00 | 0.00 | 74 | 1002.0 |
| 20260505070044 | 21 | 44 | 3.2 | 3.2 | 0.00 | 0.00 | 0.00 | 74 | 1001.9 |
| 20260505065540 | 20 | 41 | 1.6 | 1.6 | 0.00 | 0.00 | 0.00 | 74 | 1002.0 |
| 20260505065037 | 20 | 43 | 1.6 | 1.6 | 0.00 | 0.00 | 0.00 | 74 | 1002.1 |
| 20260505064534 | 20 | 42 | 3.2 | 3.2 | 0.00 | 0.00 | 0.00 | 74 | 1002.2 |
| 20260505064032 | 20 | 39 | 1.6 | 1.6 | 0.00 | 0.00 | 0.00 | 75 | 1002.2 |
| 20260505063529 | 20 | 27 | 0.0 | 0.0 | 0.00 | 0.00 | 0.00 | 75 | 1002.4 |
| 20260505063025 | 20 | 38 | 0.0 | 0.0 | 0.00 | 0.00 | 0.00 | 75 | 1002.4 |
| 20260505062522 | 20 | 42 | 0.0 | 1.6 | 0.00 | 0.00 | 0.00 | 74 | 1002.2 |
| 20260505062020 | 20 | 32 | 1.6 | 1.6 | 0.00 | 0.00 | 0.00 | 73 | 1002.1 |
| 20260505061517 | 21 | 54 | 0.0 | 0.0 | 0.00 | 0.00 | 0.00 | 73 | 1001.9 |
| 20260505061015 | 21 | 55 | 0.0 | 0.0 | 0.00 | 0.00 | 0.00 | 72 | 1001.5 |
| 20260505060512 | 20 | 92 | 0.0 | 3.2 | 0.00 | 0.00 | 0.00 | 73 | 1001.5 |
| 20260505060008 | 20 | 67 | 0.0 | 0.0 | 0.00 | 0.00 | 0.00 | 72 | 1001.3 |
| 20260505055504 | 21 | 67 | 0.0 | 0.0 | 0.00 | 0.00 | 0.00 | 72 | 1001.1 |
| 20260505055000 | 21 | 68 | 1.6 | 1.6 | 0.00 | 0.00 | 0.00 | 71 | 1001.3 |
| 20260505054458 | 21 | 86 | 1.6 | 1.6 | 0.00 | 0.00 | 0.00 | 71 | 1001.4 |
| 20260505053956 | 21 | 62 | 1.6 | 1.6 | 0.00 | 0.00 | 0.00 | 71 | 1001.3 |
| 20260505053453 | 21 | 79 | 1.6 | 3.2 | 0.00 | 0.00 | 0.00 | 71 | 1001.3 |
| 20260505052949 | 21 | 72 | 0.0 | 0.0 | 0.00 | 0.00 | 0.00 | 71 | 1001.5 |
| 20260505052447 | 21 | 97 | 3.2 | 3.2 | 0.00 | 0.00 | 0.00 | 70 | 1001.6 |
| 20260505051944 | 21 | 92 | 1.6 | 3.2 | 0.00 | 0.00 | 0.00 | 70 | 1001.7 |
| 20260505051440 | 21 | 140 | 3.2 | 3.2 | 0.00 | 0.00 | 0.00 | 69 | 1002.0 |
| 20260505050939 | 21 | 67 | 1.6 | 1.6 | 0.00 | 0.00 | 0.00 | 69 | 1001.8 |
| 20260505050437 | 21 | 83 | 3.2 | 3.2 | 0.00 | 0.00 | 0.00 | 69 | 1001.7 |
| 20260505041404 | 21 | 130 | 1.6 | 3.2 | 0.00 | 0.00 | 0.00 | 66 | 1001.5 |
| 20260505040901 | 21 | 81 | 4.8 | 6.4 | 0.00 | 0.00 | 0.00 | 66 | 1001.6 |
| 20260505040359 | 21 | 96 | 3.2 | 3.2 | 0.00 | 0.00 | 0.00 | 66 | 1001.8 |
| 20260505035855 | 21 | 91 | 3.2 | 3.2 | 0.00 | 0.00 | 0.00 | 66 | 1001.8 |
| 20260505035351 | 21 | 81 | 1.6 | 3.2 | 0.00 | 0.00 | 0.00 | 66 | 1002.0 |
| 20260505034849 | 21 | 88 | 6.4 | 9.7 | 0.00 | 0.00 | 0.00 | 66 | 1002.1 |
| 20260505034345 | 21 | 116 | 1.6 | 1.6 | 0.00 | 0.00 | 0.00 | 67 | 1002.0 |
| 20260505033842 | 21 | 11 | 1.6 | 1.6 | 0.00 | 0.00 | 0.00 | 67 | 1001.8 |
| 20260505033339 | 21 | 63 | 1.6 | 3.2 | 0.00 | 0.00 | 0.00 | 66 | 1002.4 |
| 20260505032838 | 21 | 91 | 1.6 | 4.8 | 0.00 | 0.00 | 0.00 | 65 | 1002.2 |
| 20260505032334 | 21 | 83 | 3.2 | 3.2 | 0.00 | 0.00 | 0.00 | 64 | 1002.1 |
| 20260505031831 | 21 | 125 | 3.2 | 4.8 | 0.00 | 0.00 | 0.00 | 64 | 1002.4 |
| 20260505031327 | 21 | 90 | 1.6 | 1.6 | 0.00 | 0.00 | 0.00 | 64 | 1002.4 |
| 20260505030825 | 21 | 78 | 1.6 | 1.6 | 0.00 | 0.00 | 0.00 | 63 | 1002.6 |
| 20260505030321 | 21 | 70 | 1.6 | 1.6 | 0.00 | 0.00 | 0.00 | 63 | 1002.5 |
| 20260505025816 | 21 | 88 | 4.8 | 4.8 | 0.00 | 0.00 | 0.00 | 63 | 1002.4 |
| 20260505025314 | 21 | 63 | 3.2 | 3.2 | 0.00 | 0.00 | 0.00 | 63 | 1002.5 |
| 20260505024812 | 21 | 23 | 1.6 | 4.8 | 0.00 | 0.00 | 0.00 | 63 | 1002.5 |
| 20260505024309 | 21 | 91 | 1.6 | 3.2 | 0.00 | 0.00 | 0.00 | 63 | 1002.8 |
| 20260505023807 | 21 | 81 | 1.6 | 1.6 | 0.00 | 0.00 | 0.00 | 63 | 1002.8 |
| 20260505023303 | 21 | 91 | 1.6 | 1.6 | 0.00 | 0.00 | 0.00 | 62 | 1002.9 |
| 20260505022801 | 21 | 69 | 1.6 | 3.2 | 0.00 | 0.00 | 0.00 | 62 | 1002.7 |
| 20260505022258 | 22 | 95 | 3.2 | 3.2 | 0.00 | 0.00 | 0.00 | 62 | 1002.8 |
| 20260505021754 | 22 | 74 | 1.6 | 3.2 | 0.00 | 0.00 | 0.00 | 62 | 1002.5 |
| 20260505021251 | 22 | 71 | 1.6 | 3.2 | 0.00 | 0.00 | 0.00 | 62 | 1002.6 |
| 20260505020747 | 22 | 81 | 1.6 | 1.6 | 0.00 | 0.00 | 0.00 | 62 | 1002.7 |
| 20260505020242 | 22 | 77 | 1.6 | 1.6 | 0.00 | 0.00 | 0.00 | 62 | 1002.7 |
| 20260505015740 | 22 | 96 | 1.6 | 3.2 | 0.00 | 0.00 | 0.00 | 62 | 1002.6 |
| 20260505015237 | 22 | 58 | 1.6 | 1.6 | 0.00 | 0.00 | 0.00 | 62 | 1002.9 |
| 20260505014734 | 22 | 85 | 3.2 | 3.2 | 0.00 | 0.00 | 0.00 | 62 | 1002.7 |
| 20260505014231 | 22 | 69 | 1.6 | 3.2 | 0.00 | 0.00 | 0.00 | 61 | 1002.4 |
| 20260505013728 | 22 | 73 | 0.0 | 1.6 | 0.00 | 0.00 | 0.00 | 61 | 1002.5 |
| 20260505013225 | 22 | 91 | 3.2 | 3.2 | 0.00 | 0.00 | 0.00 | 61 | 1002.6 |
| 20260505012723 | 22 | 68 | 1.6 | 1.6 | 0.00 | 0.00 | 0.00 | 60 | 1002.6 |
| 20260505012220 | 23 | 94 | 1.6 | 1.6 | 0.00 | 0.00 | 0.00 | 61 | 1002.6 |
| 20260505011716 | 23 | 101 | 3.2 | 3.2 | 0.00 | 0.00 | 0.00 | 60 | 1002.4 |
| 20260505011213 | 23 | 82 | 1.6 | 1.6 | 0.00 | 0.00 | 0.00 | 60 | 1002.7 |
| 20260505010708 | 23 | 41 | 6.4 | 9.7 | 0.00 | 0.00 | 0.00 | 60 | 1002.5 |
| 20260505010205 | 23 | 55 | 3.2 | 4.8 | 0.00 | 0.00 | 0.00 | 59 | 1002.4 |
| 20260505005701 | 23 | 90 | 3.2 | 3.2 | 0.00 | 0.00 | 0.00 | 59 | 1002.5 |
| 20260505005159 | 23 | 53 | 3.2 | 4.8 | 0.00 | 0.00 | 0.00 | 58 | 1002.3 |
| 20260505004656 | 23 | 83 | 1.6 | 3.2 | 0.00 | 0.00 | 0.00 | 58 | 1002.5 |
| 20260505004152 | 23 | 53 | 6.4 | 6.4 | 0.00 | 0.00 | 0.00 | 57 | 1002.4 |
| 20260505003649 | 23 | 94 | 3.2 | 3.2 | 0.00 | 0.00 | 0.00 | 58 | 1002.5 |
| 20260505003147 | 24 | 140 | 4.8 | 6.4 | 0.00 | 0.00 | 0.00 | 57 | 1002.5 |
| 20260505002643 | 24 | 110 | 3.2 | 4.8 | 0.00 | 0.00 | 0.00 | 57 | 1002.5 |
| 20260505002141 | 24 | 123 | 3.2 | 3.2 | 0.00 | 0.00 | 0.00 | 57 | 1002.5 |
| 20260505001638 | 24 | 107 | 1.6 | 3.2 | 0.00 | 0.00 | 0.00 | 57 | 1002.7 |
| 20260505001135 | 24 | 128 | 6.4 | 9.7 | 0.00 | 0.00 | 0.00 | 56 | 1002.4 |
| 20260505000632 | 24 | 92 | 3.2 | 3.2 | 0.00 | 0.00 | 0.00 | 56 | 1002.8 |
| 20260505000131 | 24 | 103 | 4.8 | 9.7 | 0.00 | 0.00 | 0.00 | 56 | 1002.9 |
| 20260504235626 | 25 | 131 | 4.8 | 4.8 | 0.00 | 0.00 | 0.00 | 57 | 1002.9 |
| 20260504235123 | 25 | 82 | 4.8 | 4.8 | 0.00 | 0.00 | 0.00 | 57 | 1003.0 |
| 20260504234620 | 25 | 88 | 3.2 | 3.2 | 0.00 | 0.00 | 0.00 | 56 | 1003.0 |
| 20260504234118 | 25 | 116 | 3.2 | 3.2 | 0.00 | 0.00 | 0.00 | 57 | 1002.9 |
| 20260504233613 | 25 | 122 | 4.8 | 6.4 | 0.00 | 0.00 | 0.00 | 56 | 1003.0 |
| 20260504233109 | 25 | 81 | 3.2 | 6.4 | 0.00 | 0.00 | 0.00 | 55 | 1002.9 |
| 20260504232607 | 25 | 65 | 1.6 | 3.2 | 0.00 | 0.00 | 0.00 | 56 | 1002.8 |
| 20260504232104 | 25 | 102 | 4.8 | 6.4 | 0.00 | 0.00 | 0.00 | 56 | 1003.0 |
| 20260504231600 | 25 | 112 | 1.6 | 3.2 | 0.00 | 0.00 | 0.00 | 56 | 1002.9 |
| 20260504231056 | 25 | 71 | 3.2 | 6.4 | 0.00 | 0.00 | 0.00 | 55 | 1003.0 |
| 20260504230553 | 25 | 116 | 4.8 | 6.4 | 0.00 | 0.00 | 0.00 | 54 | 1002.8 |
| 20260504230052 | 25 | 103 | 4.8 | 6.4 | 0.00 | 0.00 | 0.00 | 55 | 1002.9 |
| 20260504225549 | 25 | 118 | 6.4 | 6.4 | 0.00 | 0.00 | 0.00 | 54 | 1003.0 |
| 20260504225046 | 25 | 144 | 8.0 | 11.3 | 0.00 | 0.00 | 0.00 | 54 | 1002.9 |
| 20260504224542 | 26 | 102 | 6.4 | 9.7 | 0.00 | 0.00 | 0.00 | 54 | 1002.8 |
| 20260504224040 | 26 | 98 | 3.2 | 4.8 | 0.00 | 0.00 | 0.00 | 54 | 1003.0 |
| 20260504223536 | 26 | 78 | 1.6 | 3.2 | 0.00 | 0.00 | 0.00 | 54 | 1003.0 |
| 20260504223032 | 26 | 108 | 4.8 | 4.8 | 0.00 | 0.00 | 0.00 | 54 | 1002.9 |
| 20260504222529 | 26 | 101 | 4.8 | 4.8 | 0.00 | 0.00 | 0.00 | 53 | 1002.9 |
| 20260504222027 | 26 | 228 | 3.2 | 9.7 | 0.00 | 0.00 | 0.00 | 52 | 1002.9 |
| 20260504221524 | 26 | 99 | 3.2 | 4.8 | 0.00 | 0.00 | 0.00 | 53 | 1002.8 |
| 20260504221020 | 26 | 106 | 4.8 | 4.8 | 0.00 | 0.00 | 0.00 | 52 | 1002.9 |
| 20260504220517 | 26 | 116 | 3.2 | 6.4 | 0.00 | 0.00 | 0.00 | 53 | 1002.8 |
| 20260504220014 | 26 | 137 | 3.2 | 3.2 | 0.00 | 0.00 | 0.00 | 53 | 1002.7 |
| 20260504215510 | 26 | 37 | 1.6 | 3.2 | 0.00 | 0.00 | 0.00 | 52 | 1003.0 |
| 20260504215008 | 26 | 147 | 6.4 | 6.4 | 0.00 | 0.00 | 0.00 | 51 | 1003.1 |
| 20260504214504 | 26 | 152 | 8.0 | 12.9 | 0.00 | 0.00 | 0.00 | 52 | 1003.0 |
| 20260504214000 | 26 | 2 | 4.8 | 6.4 | 0.00 | 0.00 | 0.00 | 50 | 1003.1 |
| 20260504213456 | 26 | 94 | 1.6 | 4.8 | 0.00 | 0.00 | 0.00 | 51 | 1003.1 |
| 20260504212954 | 26 | 110 | 6.4 | 11.3 | 0.00 | 0.00 | 0.00 | 51 | 1003.1 |
| 20260504212449 | 26 | 103 | 1.6 | 3.2 | 0.00 | 0.00 | 0.00 | 52 | 1003.3 |
| 20260504211947 | 26 | 148 | 6.4 | 9.7 | 0.00 | 0.00 | 0.00 | 51 | 1003.2 |
| 20260504211443 | 26 | 126 | 4.8 | 11.3 | 0.00 | 0.00 | 0.00 | 51 | 1003.3 |
| 20260504210941 | 26 | 173 | 12.9 | 27.4 | 0.00 | 0.00 | 0.00 | 50 | 1003.3 |
| 20260504210438 | 26 | 176 | 4.8 | 6.4 | 0.00 | 0.00 | 0.00 | 51 | 1003.2 |
| 20260504205935 | 26 | 119 | 6.4 | 12.9 | 0.00 | 0.00 | 0.00 | 51 | 1003.3 |
| 20260504205432 | 26 | 127 | 4.8 | 4.8 | 0.00 | 0.00 | 0.00 | 51 | 1003.4 |
| 20260504204931 | 26 | 128 | 6.4 | 6.4 | 0.00 | 0.00 | 0.00 | 51 | 1003.7 |
| 20260504204429 | 26 | 131 | 4.8 | 4.8 | 0.00 | 0.00 | 0.00 | 52 | 1003.6 |
| 20260504203928 | 26 | 187 | 9.7 | 16.1 | 0.00 | 0.00 | 0.00 | 51 | 1003.6 |
| 20260504203425 | 26 | 42 | 11.3 | 17.7 | 0.00 | 0.00 | 0.00 | 52 | 1003.8 |
| 20260504202920 | 26 | 124 | 3.2 | 4.8 | 0.00 | 0.00 | 0.00 | 52 | 1003.9 |
| 20260504202417 | 26 | 97 | 4.8 | 4.8 | 0.00 | 0.00 | 0.00 | 52 | 1003.9 |
| 20260504201914 | 26 | 70 | 8.0 | 11.3 | 0.00 | 0.00 | 0.00 | 52 | 1004.0 |
| 20260504201412 | 26 | 117 | 8.0 | 11.3 | 0.00 | 0.00 | 0.00 | 50 | 1004.2 |
| 20260504200909 | 26 | 128 | 8.0 | 9.7 | 0.00 | 0.00 | 0.00 | 50 | 1004.1 |
| 20260504200405 | 26 | 87 | 6.4 | 6.4 | 0.00 | 0.00 | 0.00 | 51 | 1004.2 |
| 20260504195902 | 26 | 130 | 9.7 | 14.5 | 0.00 | 0.00 | 0.00 | 50 | 1004.3 |
| 20260504195358 | 27 | 72 | 3.2 | 3.2 | 0.00 | 0.00 | 0.00 | 50 | 1004.5 |
| 20260504194854 | 26 | 87 | 4.8 | 4.8 | 0.00 | 0.00 | 0.00 | 48 | 1004.6 |
| 20260504194350 | 26 | 209 | 4.8 | 4.8 | 0.00 | 0.00 | 0.00 | 50 | 1004.7 |
| 20260504193847 | 26 | 145 | 6.4 | 9.7 | 0.00 | 0.00 | 0.00 | 51 | 1004.6 |
| 20260504193344 | 26 | 140 | 11.3 | 14.5 | 0.00 | 0.00 | 0.00 | 49 | 1004.7 |
| 20260504192843 | 27 | 127 | 6.4 | 9.7 | 0.00 | 0.00 | 0.00 | 50 | 1004.8 |
| 20260504192340 | 27 | 175 | 8.0 | 12.9 | 0.00 | 0.00 | 0.00 | 50 | 1004.7 |
| 20260504191838 | 27 | 130 | 4.8 | 4.8 | 0.00 | 0.00 | 0.00 | 51 | 1004.7 |
| 20260504191336 | 27 | 148 | 6.4 | 9.7 | 0.00 | 0.00 | 0.00 | 50 | 1004.8 |
| 20260504190831 | 27 | 165 | 4.8 | 6.4 | 0.00 | 0.00 | 0.00 | 52 | 1004.8 |
| 20260504190327 | 27 | 199 | 6.4 | 6.4 | 0.00 | 0.00 | 0.00 | 51 | 1004.8 |
| 20260504185824 | 26 | 133 | 8.0 | 12.9 | 0.00 | 0.00 | 0.00 | 50 | 1005.0 |
| 20260504185321 | 26 | 118 | 6.4 | 9.7 | 0.00 | 0.00 | 0.00 | 50 | 1005.0 |
| 20260504184817 | 26 | 142 | 4.8 | 9.7 | 0.00 | 0.00 | 0.00 | 51 | 1005.0 |
| 20260504184313 | 26 | 99 | 4.8 | 4.8 | 0.00 | 0.00 | 0.00 | 53 | 1005.1 |
| 20260504183809 | 27 | 117 | 14.5 | 29.0 | 0.00 | 0.00 | 0.00 | 50 | 1005.2 |
| 20260504183306 | 27 | 157 | 4.8 | 9.7 | 0.00 | 0.00 | 0.00 | 51 | 1005.2 |
| 20260504182804 | 27 | 343 | 4.8 | 9.7 | 0.00 | 0.00 | 0.00 | 48 | 1005.1 |
| 20260504182301 | 26 | 122 | 3.2 | 4.8 | 0.00 | 0.00 | 0.00 | 52 | 1005.3 |
| 20260504181759 | 26 | 173 | 11.3 | 16.1 | 0.00 | 0.00 | 0.00 | 50 | 1005.3 |
| 20260504181255 | 26 | 259 | 9.7 | 17.7 | 0.00 | 0.00 | 0.00 | 50 | 1005.4 |
| 20260504180755 | 26 | 112 | 6.4 | 9.7 | 0.00 | 0.00 | 0.00 | 52 | 1005.5 |
| 20260504180253 | 26 | 114 | 9.7 | 16.1 | 0.00 | 0.00 | 0.00 | 49 | 1005.4 |
| 20260504175750 | 26 | 130 | 6.4 | 9.7 | 0.00 | 0.00 | 0.00 | 50 | 1005.6 |
| 20260504175247 | 26 | 141 | 8.0 | 9.7 | 0.00 | 0.00 | 0.00 | 51 | 1005.7 |
| 20260504174745 | 26 | 164 | 8.0 | 14.5 | 0.00 | 0.00 | 0.00 | 49 | 1005.7 |
| 20260504174243 | 26 | 104 | 4.8 | 4.8 | 0.00 | 0.00 | 0.00 | 50 | 1005.9 |
| 20260504173739 | 26 | 123 | 14.5 | 20.9 | 0.00 | 0.00 | 0.00 | 48 | 1006.1 |
| 20260504173236 | 26 | 112 | 8.0 | 11.3 | 0.00 | 0.00 | 0.00 | 50 | 1006.1 |
| 20260504172733 | 26 | 120 | 6.4 | 6.4 | 0.00 | 0.00 | 0.00 | 50 | 1006.1 |
| 20260504172229 | 26 | 166 | 6.4 | 9.7 | 0.00 | 0.00 | 0.00 | 50 | 1005.9 |
| 20260504171725 | 26 | 109 | 9.7 | 12.9 | 0.00 | 0.00 | 0.00 | 50 | 1006.0 |
| 20260504171222 | 26 | 162 | 4.8 | 4.8 | 0.00 | 0.00 | 0.00 | 48 | 1005.9 |
| 20260504170719 | 26 | 124 | 11.3 | 14.5 | 0.00 | 0.00 | 0.00 | 49 | 1006.0 |
| 20260504170217 | 26 | 167 | 6.4 | 9.7 | 0.00 | 0.00 | 0.00 | 50 | 1006.1 |
| 20260504160135 | 25 | 92 | 8.0 | 12.9 | 0.00 | 0.00 | 0.00 | 47 | 1006.6 |
| 20260504151102 | 23 | 53 | 3.2 | 3.2 | 0.00 | 0.00 | 0.00 | 49 | 1007.0 |
| 20260504150600 | 23 | 102 | 6.4 | 12.9 | 0.00 | 0.00 | 0.00 | 49 | 1007.2 |
| 20260504141026 | 20 | 76 | 1.6 | 1.6 | 0.00 | 0.00 | 0.00 | 55 | 1007.7 |
| 20260504140522 | 20 | 140 | 3.2 | 3.2 | 0.00 | 0.00 | 0.00 | 55 | 1007.7 |